{"data":{"norad_id":68502,"epoch":"2026-05-25T02:45:41.901120Z","epoch_age_seconds":64839,"freshness":"FRESH","line1":"1 68502U 26067CQ  26145.11506830  .00000682  00000+0  73412-4 0  9990","line2":"2 68502  97.7613 103.7284 0003625  88.5044 271.6590 14.91638186  8281","mean_motion":14.91638186,"eccentricity":0.0003625,"inclination_deg":97.7613,"raan_deg":103.7284,"arg_perigee_deg":88.5044,"mean_anomaly_deg":271.659,"bstar":7.3412e-5,"rev_number":828,"period_min":96.538156069973,"perigee_km":590.30012512761,"apogee_km":595.35407409983,"semimajor_km":6970.9640996137005,"source":"CELESTRAK","updated_at":"2026-05-25T13:38:07.879435Z"}}